Wind_Speed
4 4 4 3 2 2 1 1 0 0 0 1 1 2 2 2 3 3 4 4 4 4 4 5 6 7 7 8 8 8 8 9 9 8 8 9 10 11 11 11 11 11 11
4 4 3 3 2 2 1 1 1 1 1 1 1 1 2 2 3 4 4 4 4 5 5 5 6 6 6 6 7 7 8 8 9 9 8 9 10 10 11 11 11 11 12
5 5 5 5 3 2 1 1 1 1 1 2 2 2 2 2 3 4 4 4 4 5 5 5 5 6 6 7 7 7 7 7 8 8 8 8 8 9 11 12 12 12 12
6 6 6 5 4 3 3 3 2 3 3 3 3 3 3 3 3 4 4 4 5 5 5 6 6 6 6 7 7 7 7 7 7 7 7 7 8 9 10 11 11 12 12
6 6 5 5 4 4 4 4 3 3 3 3 3 3 3 3 4 5 5 5 5 5 5 6 6 7 7 7 7 7 6 7 8 8 8 8 9 10 11 11 11 12 12
6 5 4 4 4 4 4 3 3 3 3 3 3 4 3 3 4 5 5 5 5 6 6 7 7 7 7 8 8 8 7 8 8 8 9 9 10 11 12 11 12 12 13
5 5 4 4 4 4 3 4 4 3 3 3 3 4 4 4 5 5 6 6 7 7 7 7 7 7 7 8 9 9 9 10 9 9 8 9 10 11 11 11 12 13 13
5 4 4 4 4 4 4 4 4 4 4 4 4 4 4 5 5 6 7 7 7 7 7 7 7 8 8 9 9 10 10 10 10 10 10 10 10 11 11 11 12 13 13
5 5 4 4 3 4 4 4 4 5 5 4 5 5 5 6 6 7 7 7 8 8 8 8 7 8 9 10 10 10 11 10 10 10 11 11 11 12 12 12 13 13 14
4 3 4 4 3 3 4 4 5 5 5 5 5 6 7 7 8 9 8 8 8 8 8 8 8 9 10 11 11 11 11 11 12 12 12 12 12 12 13 13 13 14 14
4 3 3 3 3 3 4 4 5 5 5 6 6 7 7 8 9 9 9 10 9 10 10 10 10 11 12 12 12 12 12 12 13 13 14 13 13 13 14 13 13 14 14
4 3 3 3 4 4 4 5 5 6 6 6 7 8 8 9 9 9 10 11 11 11 11 11 11 12 12 12 12 12 13 14 14 14 14 14 14 14 14 14 14 14 15
4 3 3 4 4 4 5 6 6 7 7 7 8 9 9 9 9 10 10 11 12 12 12 13 13 13 13 13 13 13 13 13 14 15 15 15 15 14 15 15 15 15 15
4 4 5 5 5 5 6 7 7 8 8 9 9 10 10 10 10 10 11 11 12 12 13 13 14 14 15 14 14 14 14 15 15 16 16 15 15 15 15 15 15 15 15
5 6 6 6 6 6 7 8 8 9 10 10 10 11 11 11 12 12 12 12 12 13 13 14 15 16 16 17 17 16 17 17 17 16 16 16 16 16 16 15 15 16 16
6 7 7 7 7 7 8 9 9 10 10 10 11 12 13 13 13 13 13 14 14 14 14 15 16 17 17 18 18 18 18 18 17 17 17 17 17 17 17 17 16 16 17
8 8 8 9 9 9 10 10 11 11 11 12 13 13 14 14 14 14 15 15 15 16 16 16 17 18 19 19 20 20 20 20 20 19 19 19 19 19 19 18 18 18 18
10 10 11 11 11 12 12 13 13 13 13 13 14 14 15 16 16 16 16 17 17 18 18 18 19 20 21 21 22 21 21 22 22 21 21 21 21 21 21 20 20 20 20
12 12 13 13 14 14 14 15 15 15 15 15 16 16 17 17 17 18 18 19 19 20 20 20 21 21 22 23 23 23 23 23 23 24 23 23 23 22 22 22 22 22 22
14 14 14 15 15 15 16 16 16 17 17 17 17 18 19 19 19 20 20 21 21 22 22 23 23 24 24 24 24 25 25 25 25 25 25 24 24 23 23 23 23 24 24
15 16 16 16 16 17 18 18 18 19 19 19 19 20 21 21 21 22 22 23 24 24 24 25 25 26 26 26 27 27 26 26 26 25 25 25 25 25 24 25 25 25 26
17 17 18 18 18 19 20 20 20 21 21 21 22 22 23 23 23 24 25 25 26 26 27 28 28 28 28 28 28 28 28 28 27 27 26 26 27 27 27 27 26 27 27
19 19 20 20 21 21 22 23 23 24 23 23 24 24 25 26 26 27 27 28 28 29 29 29 29 29 29 29 30 29 29 29 29 28 28 28 28 29 29 28 28 28 29
22 22 22 22 23 23 24 24 25 26 26 26 26 27 28 29 30 30 31 30 30 31 31 31 31 31 31 31 31 30 30 30 30 29 29 29 29 30 30 30 30 30 30
24 24 24 24 24 25 26 27 27 28 28 28 29 30 31 31 32 33 33 33 33 33 33 33 32 32 32 33 33 32 32 31 31 31 31 31 31 30 30 30 30 30 30
25 26 26 26 26 26 27 28 29 30 30 30 30 30 31 32 33 34 34 35 35 35 35 35 34 34 34 34 34 34 34 33 32 32 33 33 33 32 31 30 31 31 30
Wind_Direction
93 113 121 129 129 126 108 95 59 96 100 337 319 345 351 356 344 333 335 332 325 320 316 309 309 307 305 303 302 300 303 294 287 284 276 274 273 273 273 270 262 262 262
77 89 106 107 120 123 114 99 68 48 78 85 67 7 359 5 356 353 347 337 330 327 327 326 321 315 312 309 308 303 300 296 288 285 286 284 279 273 271 271 264 260 262
72 79 92 96 100 101 83 60 59 75 84 76 52 30 12 9 354 359 354 347 344 333 330 330 328 325 322 314 312 308 302 295 292 290 294 292 283 275 272 269 266 259 260
78 80 82 84 81 82 74 67 74 67 53 42 36 25 13 13 3 358 354 351 344 333 329 329 328 326 323 325 318 312 305 303 300 297 297 295 288 284 281 274 267 263 263
78 78 80 75 71 67 66 64 62 56 41 30 21 19 14 13 2 356 355 348 340 336 336 334 333 335 331 329 328 325 314 310 302 300 296 290 290 290 286 279 274 273 268
73 73 73 68 70 67 58 55 55 42 32 29 23 18 13 12 1 359 1 354 345 343 347 346 339 337 334 330 326 322 316 311 306 300 294 291 290 289 286 284 277 276 271
70 63 66 65 70 61 52 48 44 36 34 31 21 11 3 358 358 355 352 346 343 344 346 348 347 340 332 329 326 320 315 313 310 309 303 296 291 290 292 288 282 278 275
64 65 60 60 67 56 46 38 32 27 24 17 6 359 356 352 342 342 347 346 340 338 339 339 335 332 330 326 324 321 320 318 313 308 305 302 298 295 294 291 286 282 279
58 64 59 48 51 50 44 33 23 19 15 6 360 356 350 344 337 335 335 336 335 332 333 337 333 328 326 323 321 322 323 318 312 306 302 301 300 296 293 290 287 283 279
44 53 47 36 35 34 27 15 9 6 4 359 350 344 343 341 337 333 332 331 330 329 328 328 328 327 324 323 323 323 318 313 310 307 305 303 303 300 294 292 288 285 281
35 34 32 27 16 15 5 357 355 356 353 345 341 338 334 331 331 332 331 330 329 328 326 326 323 324 322 322 321 320 317 312 310 308 306 303 301 299 297 295 292 287 283
26 18 9 2 350 351 349 346 345 346 342 340 338 335 331 329 330 329 329 330 332 330 329 331 326 324 324 322 321 318 316 312 310 309 307 303 300 298 295 294 293 289 284
3 351 342 337 336 335 335 335 335 335 332 331 331 330 331 328 325 324 325 327 329 331 332 331 328 327 325 321 319 319 317 312 310 310 308 304 300 298 296 294 293 289 286
341 333 327 329 326 323 326 327 328 324 321 320 321 323 326 326 324 322 323 324 325 327 327 328 328 327 326 325 319 317 314 311 310 309 308 305 303 302 300 297 295 290 285
321 314 320 323 319 317 320 321 320 319 318 316 316 319 321 322 322 321 319 319 319 321 324 324 323 325 324 324 323 320 317 314 312 309 307 307 305 302 301 299 296 291 289
313 310 315 315 312 311 315 317 316 317 316 315 315 316 316 316 316 315 315 314 314 316 319 320 319 320 321 322 323 321 319 317 315 311 307 304 303 303 301 298 296 293 291
308 310 311 308 306 304 306 309 311 312 312 313 315 315 313 313 312 312 310 310 311 313 315 316 316 317 318 318 318 317 317 316 314 312 309 306 303 302 300 296 293 292 291
302 305 305 305 302 300 300 302 304 304 306 307 308 311 312 311 309 309 309 308 308 309 310 311 312 313 313 314 314 315 313 313 312 310 308 305 302 300 297 294 291 290 290
295 298 299 300 300 299 298 298 298 301 301 301 303 305 306 307 307 306 305 304 304 306 308 309 309 309 310 311 311 311 310 309 309 307 305 303 301 298 296 293 291 289 287
291 293 294 296 297 297 298 297 295 297 299 300 300 301 303 303 304 303 303 302 302 304 306 307 308 308 308 308 308 307 308 307 306 305 304 302 300 299 296 294 291 289 287
292 292 292 293 295 297 297 295 295 295 296 297 297 298 299 300 301 301 301 300 300 301 303 305 306 306 306 306 306 305 305 305 304 303 303 302 300 299 297 294 291 289 288
292 293 292 291 291 292 293 293 294 294 294 295 295 296 297 298 298 300 300 299 298 299 301 303 304 305 305 304 304 303 303 303 303 302 301 300 299 298 296 294 291 289 289
291 292 290 289 289 290 290 291 292 293 293 293 294 295 295 296 297 297 297 298 298 298 299 301 302 302 303 303 302 301 301 302 303 302 299 298 297 296 296 293 291 288 288
290 291 290 289 289 289 289 290 291 292 293 293 294 294 295 296 297 296 296 296 297 296 297 298 300 300 301 302 302 301 300 300 300 300 299 298 297 296 294 293 290 288 287
290 290 290 288 288 288 288 289 289 289 291 292 293 293 293 293 294 294 295 295 295 296 296 297 299 301 301 300 300 299 300 299 298 298 299 298 297 296 294 293 291 289 287
290 289 288 288 288 289 290 290 290 290 291 293 294 295 295 294 293 294 295 295 294 295 295 296 297 298 300 300 299 300 299 298 297 296 297 297 297 295 294 294 292 290 288
Height
5889 5889 5889 5889 5890 5890 5890 5889 5889 5889 5889 5888 5888 5888 5887 5887 5886 5886 5885 5884 5884 5884 5883 5883 5882 5881 5881 5880 5879 5878 5877 5876 5876 5876 5876 5875 5876 5876 5876 5877 5877 5877 5878
5889 5889 5889 5889 5890 5890 5889 5889 5889 5889 5889 5888 5888 5888 5887 5887 5886 5885 5884 5884 5883 5883 5883 5882 5881 5880 5879 5878 5877 5875 5875 5874 5874 5874 5874 5873 5873 5873 5874 5874 5874 5875 5875
5890 5891 5890 5890 5890 5890 5890 5890 5890 5890 5889 5889 5889 5888 5888 5887 5886 5885 5884 5884 5883 5883 5882 5881 5880 5879 5878 5877 5876 5874 5873 5872 5872 5872 5871 5871 5871 5871 5871 5871 5871 5872 5872
5891 5891 5891 5891 5891 5890 5890 5890 5890 5890 5890 5889 5889 5889 5888 5887 5886 5885 5884 5884 5883 5882 5882 5881 5880 5879 5877 5876 5875 5873 5872 5871 5871 5870 5869 5869 5869 5868 5868 5868 5869 5869 5869
5892 5892 5892 5892 5892 5892 5891 5891 5891 5891 5890 5890 5890 5889 5888 5888 5886 5885 5884 5883 5883 5882 5881 5880 5879 5878 5877 5875 5874 5872 5871 5870 5869 5868 5867 5867 5866 5866 5866 5866 5866 5866 5866
5894 5894 5894 5894 5893 5893 5893 5892 5892 5891 5891 5890 5890 5889 5889 5888 5887 5886 5884 5883 5883 5882 5880 5879 5878 5877 5876 5874 5873 5871 5870 5868 5867 5866 5865 5865 5864 5864 5863 5863 5863 5862 5862
5895 5895 5895 5895 5894 5894 5894 5893 5892 5891 5891 5891 5890 5890 5889 5888 5887 5886 5885 5884 5883 5881 5880 5879 5877 5876 5875 5873 5872 5870 5869 5867 5866 5865 5864 5863 5862 5862 5861 5860 5860 5859 5859
5895 5895 5896 5895 5895 5895 5894 5893 5893 5892 5891 5891 5890 5889 5889 5889 5887 5886 5884 5883 5882 5880 5879 5878 5877 5875 5874 5872 5871 5869 5867 5866 5864 5863 5862 5861 5860 5859 5858 5857 5857 5856 5856
5896 5896 5896 5896 5896 5895 5895 5894 5893 5893 5892 5891 5890 5890 5889 5887 5886 5885 5884 5882 5881 5880 5878 5877 5875 5874 5872 5871 5869 5867 5866 5864 5863 5861 5860 5859 5858 5857 5856 5855 5854 5853 5853
5897 5897 5897 5897 5896 5896 5895 5895 5894 5893 5892 5891 5890 5889 5888 5887 5885 5884 5883 5881 5880 5878 5877 5875 5874 5872 5871 5869 5867 5866 5864 5862 5861 5859 5858 5857 5855 5854 5853 5852 5851 5850 5849
5898 5898 5897 5897 5897 5896 5895 5895 5894 5893 5892 5891 5890 5888 5887 5886 5884 5883 5882 5880 5879 5877 5875 5873 5872 5871 5869 5867 5865 5864 5862 5860 5859 5857 5855 5854 5852 5851 5850 5848 5847 5846 5845
5899 5898 5897 5897 5897 5896 5895 5894 5893 5892 5891 5890 5889 5887 5886 5885 5883 5882 5880 5879 5877 5875 5873 5872 5870 5869 5867 5865 5863 5861 5860 5858 5856 5854 5853 5851 5849 5848 5846 5845 5844 5842 5842
5899 5898 5897 5897 5896 5895 5895 5894 5893 5892 5890 5889 5888 5886 5885 5883 5882 5881 5879 5877 5875 5874 5872 5870 5868 5867 5865 5863 5861 5859 5857 5855 5853 5851 5850 5848 5846 5844 5843 5841 5840 5839 5838
5898 5898 5897 5896 5895 5895 5894 5893 5892 5891 5889 5888 5887 5885 5884 5882 5880 5879 5877 5876 5874 5872 5870 5868 5866 5864 5862 5860 5858 5856 5854 5852 5850 5848 5846 5844 5842 5841 5839 5838 5836 5835 5834
5898 5897 5896 5895 5894 5893 5892 5891 5890 5889 5888 5886 5885 5884 5882 5880 5879 5877 5875 5874 5872 5870 5869 5866 5864 5862 5859 5857 5855 5853 5851 5848 5846 5844 5842 5840 5838 5837 5835 5834 5832 5831 5830
5896 5896 5895 5894 5893 5892 5891 5890 5889 5887 5886 5885 5883 5882 5880 5878 5876 5875 5873 5871 5869 5868 5866 5864 5861 5859 5857 5854 5852 5849 5847 5845 5842 5840 5838 5836 5834 5832 5831 5829 5828 5827 5825
5895 5894 5894 5893 5891 5890 5889 5888 5887 5886 5884 5883 5881 5879 5878 5876 5874 5872 5870 5868 5866 5864 5863 5861 5858 5856 5853 5851 5848 5846 5843 5840 5838 5836 5834 5832 5830 5828 5826 5824 5823 5822 5820
5894 5893 5892 5891 5889 5888 5887 5886 5884 5883 5882 5880 5879 5877 5875 5873 5871 5869 5867 5865 5863 5861 5859 5857 5854 5852 5849 5847 5844 5841 5839 5836 5833 5831 5828 5826 5824 5822 5820 5819 5817 5816 5815
5891 5890 5889 5888 5887 5885 5884 5883 5881 5880 5878 5877 5875 5873 5871 5869 5867 5865 5863 5861 5859 5857 5855 5852 5850 5847 5845 5842 5839 5837 5834 5831 5828 5825 5823 5821 5818 5816 5814 5813 5811 5810 5809
5888 5887 5886 5885 5883 5882 5881 5879 5878 5876 5875 5873 5871 5869 5867 5865 5863 5861 5859 5856 5854 5852 5850 5847 5845 5842 5840 5837 5834 5831 5828 5826 5823 5820 5817 5815 5812 5810 5808 5806 5805 5803 5802
5885 5884 5883 5881 5880 5878 5877 5875 5874 5872 5870 5869 5867 5865 5863 5861 5859 5856 5854 5852 5849 5847 5844 5842 5839 5837 5834 5831 5828 5825 5822 5820 5817 5814 5811 5809 5806 5804 5801 5799 5798 5796 5795
5881 5880 5879 5877 5876 5874 5873 5871 5869 5867 5865 5863 5862 5860 5857 5855 5853 5851 5848 5846 5844 5841 5838 5835 5833 5830 5828 5825 5822 5819 5816 5813 5810 5808 5805 5802 5799 5797 5794 5792 5790 5788 5787
5877 5875 5874 5872 5871 5869 5867 5866 5864 5862 5860 5858 5856 5854 5852 5849 5847 5844 5842 5839 5837 5834 5832 5829 5826 5823 5820 5818 5815 5812 5808 5805 5803 5800 5797 5795 5792 5789 5787 5784 5782 5780 5778
5871 5870 5869 5867 5865 5864 5862 5860 5858 5856 5854 5852 5850 5847 5845 5842 5840 5837 5835 5832 5829 5826 5824 5821 5818 5816 5813 5810 5807 5804 5801 5798 5795 5792 5789 5787 5785 5782 5779 5776 5774 5772 5770
5866 5864 5862 5861 5859 5857 5856 5854 5852 5849 5847 5845 5843 5840 5838 5835 5832 5829 5827 5824 5821 5818 5815 5813 5810 5807 5804 5801 5798 5795 5792 5789 5787 5784 5781 5779 5776 5773 5770 5768 5765 5763 5761
5859 5858 5856 5854 5852 5851 5849 5846 5844 5842 5840 5838 5835 5832 5829 5826 5824 5821 5818 5815 5813 5810 5807 5804 5801 5799 5796 5793 5789 5786 5783 5780 5778 5776 5773 5770 5767 5764 5762 5759 5756 5754 5752